User: anonymous   Login
Location: Newark
(44.3248°N, 23.7839°E)
Time: 04:31:09
(UTC+00:00)
Language:

PCSat - Orbit

View from above orbital plane
View from above orbital plane
View from above satellite
View from above satellite

Ground track
Ground track

The orbit data is extracted from the following two-line orbital elements,

1 26931U 01043C   24108.40992981  .00000616  00000-0  26417-3 0  9992
2 26931  67.0488 128.5628 0006188 281.9042  78.1366 14.31177352177254
Epoch (UTC): 17 April 2024 09:50:17
Eccentricity: 0.0006188
inclination: 67.0488°
perigee height: 783 km
apogee height: 792 km
right ascension of ascending node: 128.5628°
argument of perigee: 281.9042°
revolutions per day: 14.31177352
mean anomaly at epoch: 78.1366°
orbit number at epoch: 17725

The dashed part of the orbit path shows where the satellite is in the earth's shadow,  

DLR